{"data":{"norad_id":68391,"intl_designator":"2026-063M","name":"STARLINK-37216","alt_names":[],"object_type":"PAYLOAD","status":"ACTIVE","operator":null,"country":"US","launch_date":"2026-03-26","launch_site_code":"AFWTR","launch_vehicle":null,"mission":null,"orbit_class":"UNKNOWN","rcs_meters":null,"size_class":null,"mass_kg":null,"dimensions":null,"purposes":["comms"],"wikipedia_slug":null,"has_3d_model":false,"image_url":null,"decayed_at":null,"tle_current":{"epoch":"2026-09-19T16:40:29.657280Z","epoch_age_seconds":118020,"freshness":"FRESH","line1":"1 68391U 26063M   26262.69478770  .00016335  00000+0  50729-3 0  9993","line2":"2 68391  97.2851  43.5381 0002936  98.1727 261.9849 15.33437874 27620","mean_motion":15.33437874,"eccentricity":0.0002936,"inclination_deg":97.2851,"raan_deg":43.5381,"arg_perigee_deg":98.1727,"mean_anomaly_deg":261.9849,"bstar":0.00050729,"rev_number":2762,"period_min":93.906641045961,"perigee_km":463.55506579852,"apogee_km":467.57368724682,"semimajor_km":6843.7013765227,"source":"CELESTRAK","updated_at":"2026-09-20T09:00:43.895455Z"}}}